| time (UTC) | temp F | wind direction | speed MPH | gust MPH | rain 1hr in | rain 24hr in | rain mn in | humidity % | barometer mb |
| 20260504014530 | 67 | 140 | 5.0 | 7.0 | 0.00 | 0.00 | 0.00 | 65 | 1019.9 |
| 20260504013046 | 68 | 156 | 6.0 | 9.0 | 0.00 | 0.00 | 0.00 | 64 | 1019.9 |
| 20260504011543 | 69 | 134 | 5.0 | 8.0 | 0.00 | 0.00 | 0.00 | 61 | 1019.8 |
| 20260504010047 | 70 | 122 | 6.0 | 10.0 | 0.00 | 0.00 | 0.00 | 61 | 1019.8 |
| 20260504004616 | 71 | 138 | 5.0 | 8.0 | 0.00 | 0.00 | 0.00 | 60 | 1019.7 |
| 20260504003004 | 72 | 140 | 6.0 | 10.0 | 0.00 | 0.00 | 0.00 | 58 | 1019.8 |
| 20260504001514 | 73 | 150 | 6.0 | 9.0 | 0.00 | 0.00 | 0.00 | 57 | 1019.8 |
| 20260504000019 | 73 | 135 | 6.0 | 11.0 | 0.00 | 0.00 | 0.00 | 55 | 1019.7 |
| 20260503234523 | 74 | 170 | 6.0 | 11.0 | 0.00 | 0.00 | 0.00 | 54 | 1019.9 |
| 20260503233031 | 75 | 171 | 7.0 | 13.0 | 0.00 | 0.00 | 0.00 | 52 | 1019.8 |
| 20260503231531 | 75 | 168 | 8.0 | 14.0 | 0.00 | 0.00 | 0.00 | 52 | 1020.2 |
| 20260503230044 | 76 | 137 | 9.0 | 13.0 | 0.00 | 0.00 | 0.00 | 53 | 1020.1 |
| 20260503224547 | 76 | 163 | 8.0 | 13.0 | 0.00 | 0.00 | 0.00 | 52 | 1020.3 |
| 20260503223058 | 76 | 151 | 8.0 | 13.0 | 0.00 | 0.00 | 0.00 | 53 | 1020.4 |
| 20260503221556 | 76 | 107 | 6.0 | 11.0 | 0.00 | 0.00 | 0.00 | 52 | 1020.7 |
| 20260503221503 | 76 | 119 | 6.0 | 11.0 | 0.00 | 0.00 | 0.00 | 52 | 1020.8 |
| 20260503220043 | 77 | 215 | 9.0 | 14.0 | 0.00 | 0.00 | 0.00 | 51 | 1020.7 |
| 20260503214557 | 76 | 132 | 5.0 | 11.0 | 0.00 | 0.00 | 0.00 | 51 | 1020.7 |
| 20260503213056 | 77 | 133 | 4.0 | 12.0 | 0.00 | 0.00 | 0.00 | 49 | 1021.0 |
| 20260503211504 | 77 | 165 | 7.0 | 12.0 | 0.00 | 0.00 | 0.00 | 49 | 1021.1 |
| 20260503210010 | 77 | 147 | 7.0 | 12.0 | 0.00 | 0.00 | 0.00 | 50 | 1021.5 |
| 20260503204511 | 77 | 131 | 6.0 | 10.0 | 0.00 | 0.00 | 0.00 | 48 | 1021.5 |
| 20260503203023 | 78 | 105 | 7.0 | 10.0 | 0.00 | 0.00 | 0.00 | 47 | 1021.6 |
| 20260503201505 | 77 | 86 | 6.0 | 13.0 | 0.00 | 0.00 | 0.00 | 48 | 1021.9 |
| 20260503200009 | 77 | 138 | 9.0 | 15.0 | 0.00 | 0.00 | 0.00 | 45 | 1022.2 |
| 20260503194509 | 77 | 146 | 7.0 | 12.0 | 0.00 | 0.00 | 0.00 | 48 | 1022.4 |
| 20260503193030 | 77 | 128 | 11.0 | 16.0 | 0.00 | 0.00 | 0.00 | 47 | 1022.6 |
| 20260503191515 | 77 | 109 | 2.0 | 11.0 | 0.00 | 0.00 | 0.00 | 51 | 1022.8 |
| 20260503190022 | 76 | 46 | 7.0 | 14.0 | 0.00 | 0.00 | 0.00 | 50 | 1023.0 |
| 20260503184605 | 76 | 119 | 5.0 | 13.0 | 0.00 | 0.00 | 0.00 | 50 | 1023.3 |
| 20260503183102 | 76 | 88 | 4.0 | 10.0 | 0.00 | 0.00 | 0.00 | 53 | 1023.5 |
| 20260503183001 | 76 | 55 | 2.0 | 10.0 | 0.00 | 0.00 | 0.00 | 53 | 1023.5 |
| 20260503181509 | 76 | 147 | 6.0 | 12.0 | 0.00 | 0.00 | 0.00 | 52 | 1023.8 |
| 20260503180009 | 76 | 79 | 3.0 | 11.0 | 0.00 | 0.00 | 0.00 | 54 | 1024.0 |
| 20260503174513 | 75 | 105 | 7.0 | 13.0 | 0.00 | 0.00 | 0.00 | 52 | 1024.3 |
| 20260503173021 | 75 | 126 | 6.0 | 10.0 | 0.00 | 0.00 | 0.00 | 54 | 1024.5 |
| 20260503171526 | 75 | 97 | 6.0 | 11.0 | 0.00 | 0.00 | 0.00 | 57 | 1024.8 |
| 20260503160110 | 73 | 83 | 5.0 | 12.0 | 0.00 | 0.00 | 0.00 | 63 | 1024.7 |
| 20260503081546 | 60 | 61 | 0.0 | 0.0 | 0.00 | 0.00 | 0.00 | 73 | 1022.5 |
| 20260503071504 | 61 | 61 | 0.0 | 1.0 | 0.00 | 0.00 | 0.00 | 71 | 1022.5 |
| 20260503054533 | 63 | 61 | 0.0 | 0.0 | 0.00 | 0.00 | 0.00 | 70 | 1022.7 |
| 20260503053033 | 63 | 61 | 0.0 | 0.0 | 0.00 | 0.00 | 0.00 | 70 | 1022.5 |
| 20260503051537 | 64 | 61 | 0.0 | 0.0 | 0.00 | 0.00 | 0.00 | 71 | 1022.5 |
| 20260503050026 | 63 | 61 | 0.0 | 0.0 | 0.00 | 0.00 | 0.00 | 69 | 1022.3 |
| 20260503044544 | 64 | 61 | 0.0 | 0.0 | 0.00 | 0.00 | 0.00 | 69 | 1022.3 |
| 20260503043034 | 65 | 61 | 0.0 | 0.0 | 0.00 | 0.00 | 0.00 | 68 | 1022.2 |
| 20260503041520 | 67 | 61 | 0.0 | 0.0 | 0.00 | 0.00 | 0.00 | 69 | 1022.1 |
| 20260503040026 | 66 | 61 | 0.0 | 0.0 | 0.00 | 0.03 | 0.00 | 69 | 1022.1 |
| 20260503034536 | 65 | 61 | 0.0 | 0.0 | 0.00 | 0.03 | 0.00 | 66 | 1021.9 |
| 20260503033035 | 65 | 61 | 0.0 | 0.0 | 0.00 | 0.03 | 0.00 | 65 | 1022.0 |
| 20260503031551 | 65 | 61 | 0.0 | 0.0 | 0.00 | 0.03 | 0.00 | 65 | 1021.7 |
| 20260503030051 | 66 | 61 | 0.0 | 0.0 | 0.00 | 0.03 | 0.00 | 65 | 1021.7 |
| 20260503024508 | 66 | 61 | 0.0 | 0.0 | 0.00 | 0.04 | 0.00 | 65 | 1021.5 |
| 20260503023022 | 67 | 61 | 0.0 | 1.0 | 0.00 | 0.04 | 0.00 | 64 | 1021.6 |
| 20260503021534 | 67 | 61 | 0.0 | 0.0 | 0.00 | 0.04 | 0.00 | 64 | 1021.5 |
| 20260503020032 | 68 | 61 | 0.0 | 0.0 | 0.00 | 0.09 | 0.00 | 63 | 1021.2 |